Regional Weather Roundup
Issued by NWS

Home | Current Version | Previous Version | Graphics & Text | Print | Product List | Glossary On
Versions: 1 2 3 4 5 6 7 8 9 10 11 12 13 14 15 16 17 18 19 20 21 22 23 24 25 26 27 28 29 30 31 32 33 34 35 36 37 38 39 40 41 42 43 44 45 46 47 48 49 50
763
ASUS43 KDMX 241906
RWRIA

WEATHER ROUNDUP FOR IOWA
NATIONAL WEATHER SERVICE DES MOINES IA
200 PM CDT MON APR 24 2017

NOTE: "FAIR" INDICATES FEW OR NO CLOUDS BELOW 12,000 FEET WITH NO
SIGNIFICANT WEATHER AND/OR OBSTRUCTIONS TO VISIBILITY.

* - THESE STATIONS ARE NOT NWS STATIONS...THUS NOT UNDER NWS
QUALITY CONTROL.  THEY ALSO DO NOT REPORT WEATHER SUCH
AS PRECIPITATION OR FOG.

IAZ001>003-012>014-020>022-031>034-043>046-242000-
   NORTHWEST IOWA

CITY           SKY/WX    TMP DP  RH WIND       PRES   REMARKS
CARROLL *      CLOUDY    73  32  21 S35G40    29.61F
CHEROKEE *     CLOUDY    67  34  29 S21G31    29.60F
DENISON *      MOSUNNY   70  34  26 S24G37    29.61F
LE MARS *      CLOUDY    68  37  32 S24G35    29.56F
ORANGE CITY *  CLOUDY    66  39  37 S21G35    29.57F
SHELDON *      CLOUDY    66  34  30 S22G28    29.56F
SIOUX CITY     PTSUNNY   71  39  31 S25G35    29.56F
SPENCER        CLOUDY    67  31  26 S28G37    29.60F
STORM LAKE *   CLOUDY    68  30  24 S29G39    29.60F
$$

IAZ055>058-069>071-079>083-090>094-242000-
   SOUTHWEST IOWA

CITY           SKY/WX    TMP DP  RH WIND       PRES   REMARKS
ATLANTIC *     SUNNY     72  34  25 S29G38    29.61F
AUDUBON *      PTSUNNY   72  27  18 S18G31    29.64F
CLARINDA *     SUNNY     73  34  23 S20G33    29.66F
COUNCIL BLFS * SUNNY     70  37  30 S22G35    29.59F
CRESTON *      SUNNY     72  32  23 S22G33    29.69F
HARLAN  *      MOSUNNY   72  34  25 MISG      29.63F
LAMONI         MOSUNNY   73  31  21 S22G31    29.71F
RED OAK *      SUNNY     73  34  23 S28G40    29.62F
SHENANDOAH *   SUNNY     73  36  25 S29G37    29.62F
$$

IAZ047>049-059>061-072>074-084-242000-
   CENTRAL IOWA

CITY           SKY/WX    TMP DP  RH WIND       PRES   REMARKS
AMES           SUNNY     69  32  25 S25G33    29.69F
ANKENY *       PTSUNNY   73  30  20 S20G36    29.71F
BOONE *        MOSUNNY   72  27  18 S25G33    29.67F
CHARITON *     PTSUNNY   72  32  23 S26       29.72F
DES MOINES     PTSUNNY   74  30  19 S24G36    29.71F
GRINNELL*      SUNNY     71  29  20 SE21G30   29.77F
KNOXVILLE *    MOSUNNY   73  28  19 S20G29    29.72F
MARSHALLTOWN   MOSUNNY   72  30  21 S23G39    29.72F
NEWTON *       SUNNY     73  28  19 S25G31    29.72F
PELLA *        SUNNY     74  27  17 S16G28    29.75F
PERRY *          N/A     72  18  12 S29G37    29.67F
$$

IAZ004>006-015-016-023>025-035-036-242000-
   NORTH CENTRAL IOWA

CITY           SKY/WX    TMP DP  RH WIND       PRES   REMARKS
ALGONA *       CLOUDY    70  30  23 S25G37    29.64F
CLARION *      CLOUDY    70  28  21 S29G38    29.66F
ESTHERVILLE    CLOUDY    68  31  25 S31G43    29.61F
FORT DODGE *   CLOUDY    72  34  25 S21G31    29.65F
MASON CITY     PTSUNNY   68  28  22 S30G39    29.69F
FOREST CITY *    N/A     66  28  24 S28       29.67F
WEBSTER CITY * CLOUDY    70  27  19 S31       29.64F
IOWA FALLS *     N/A     73  30  20 S25G38    29.72F HAZE
$$

IAZ007>011-017>019-026>030-037>042-050>054-066-242000-
   NORTHEAST IOWA

CITY           SKY/WX    TMP DP  RH WIND       PRES   REMARKS
CEDAR RAPIDS   SUNNY     73  29  19 S15G29    29.78F
CHARLES CITY * CLOUDY    72  25  17 S26G41    29.73F
CLINTON *      SUNNY     73  31  21 SE18G26   29.84F
DECORAH *      MOSUNNY   70  28  21 S14G31    29.77F
DUBUQUE        MOSUNNY   70  30  22 S18G28    29.84F
MONTICELLO *   MOSUNNY   73  28  19 S20G30    29.81F
OELWEIN *      CLOUDY    72  32  23 SE24G33   29.78F
WATERLOO       MOSUNNY   72  29  20 S22G31    29.75F
$$

IAZ064-065-067-068-078-242000-
   EAST CENTRAL IOWA

CITY           SKY/WX    TMP DP  RH WIND       PRES   REMARKS
DAVENPORT      SUNNY     75  28  17 S18G25    29.83F
IOWA CITY      SUNNY     74  31  20 SE15G26   29.81F
MT. PLEASANT * CLOUDY    75  25  16 S15G23    29.80F
MUSCATINE *    SUNNY     75  27  16 S17G29    29.81F
QUAD CITIES    SUNNY     75  27  17 S13G24    29.82F
$$

IAZ062-063-075>077-085>089-095>099-242000-
   SOUTHEAST IOWA

CITY           SKY/WX    TMP DP  RH WIND       PRES   REMARKS
BURLINGTON     SUNNY     74  35  24 S14       29.81F
FAIRFIELD *    CLOUDY    73  27  17 SE18G24   29.78F
FORT MADISON * SUNNY     77  32  19 SE14G20   29.81F
KEOKUK *       SUNNY     73  28  19 S14G23    29.80F
OSKALOOSA *      N/A     75  25  15 S22G31    29.77F
CENTERVILLE *    N/A     73  28  19 SE21      29.77F
OTTUMWA        SUNNY     74  27  17 S23G30    29.77F
WASHINGTON *   MOSUNNY   75  23  14 S18G24    29.80F
$$

ABBREVIATIONS USED IN REMARKS
   TC - TEMPERATURES IN CELSIUS
  WCI - WIND CHILL INDEX
   HX - HEAT INDEX
  VSB - VISIBILITY
$$





USA.gov is the U.S. government's official web portal to all federal, state and local government web resources and services.